Location: Caltech
(34.1382°N, 118.1253°W)
Time: 18:51:13
(UTC-07:00)

Cosmos 1125 Rocket - Visible Passes

Search period start: 18 October 2017 00:00
Search period end: 28 October 2017 00:00
Orbit: 757 x 781 km, 74.0° (Epoch: 18 October)

Date Brightness Start Highest point End Pass type
(mag) Time Alt. Az. Time Alt. Az. Time Alt. Az.
18 Oct 6.1 04:29:57 10° SE 04:33:24 18° E 04:36:52 10° NE visible
18 Oct 3.8 06:10:06 10° SW 06:15:03 43° WNW 06:20:05 10° N visible
19 Oct 3.4 05:33:01 10° SSW 05:38:15 78° WNW 05:43:33 10° NNE visible
20 Oct 4.0 04:57:14 15° S 05:01:33 59° ESE 05:06:44 10° NNE visible
21 Oct 5.1 04:23:28 27° SE 04:24:57 32° E 04:29:36 10° NE visible
21 Oct 4.5 06:03:53 15° WSW 06:06:59 25° WNW 06:11:19 10° N visible
22 Oct 6.0 03:49:04 18° E 03:49:04 18° E 03:51:55 10° NE visible
22 Oct 3.8 05:29:27 41° W 05:30:05 43° WNW 05:35:07 10° N visible
23 Oct 4.0 04:54:40 50° N 04:54:40 50° N 04:58:36 10° NNE visible
24 Oct 5.4 04:19:37 25° NNE 04:19:37 25° NNE 04:21:47 10° NNE visible
24 Oct 5.2 05:59:58 14° NW 05:59:58 14° NW 06:02:00 10° NNW visible
25 Oct 6.4 03:44:24 11° NE 03:44:24 11° NE 03:44:38 10° NE visible
25 Oct 5.3 05:24:44 17° NNW 05:24:44 17° NNW 05:26:22 10° N visible
26 Oct 5.7 04:49:22 14° N 04:49:22 14° N 04:50:10 10° N visible
